Other Public Products
Issued by NWS Grand Forks, ND

Home | Current Version | Previous Version | Graphics & Text | Print | Product List | Glossary On
Versions: 1 2 3 4 5 6 7 8 9 10 11 12 13 14 15 16 17 18 19 20 21 22 23 24 25 26 27 28 29 30 31 32 33 34 35 36 37 38 39 40 41 42 43 44 45 46 47 48 49 50
000
FPUS83 KFGF 060510
OPUFGF
PRAIRIE TO PINES WEATHER ROUNDUP
NATIONAL WEATHER SERVICE EASTERN NORTH DAKOTA/GRAND FORKS ND
1200 AM CDT FRI MAY 06 2016

 **SATELLITE DATA USED TO AUGMENT SKY COVER AT AUTOMATED STATIONS**
 *****  WEATHER ACROSS EASTERN NORTH DAKOTA  *****

CITY           SKY/WX    TMP DP  RH WIND       PRES   REMARKS
GRAND FORKS    PTCLDY    66  41  40 S12       29.70F
GRAND FORKS AF CLEAR     64  39  39 SW8       29.70F
GRAND CITY NWS NOT AVBL
BUXTON         NOT AVBL
DEVILS LAKE    CLOUDY    68  44  42 SW12      29.73F
FARGO          CLOUDY    74  40  29 SW15      29.77R
WAHPETON ARPT  CLEAR     64  37  36 S10       29.81S
$$

 *****  WEATHER ACROSS CENTRAL AND WESTERN NORTH DAKOTA  *****

CITY           SKY/WX    TMP DP  RH WIND       PRES   REMARKS
JAMESTOWN      PTCLDY    63  47  55 S8        29.78F
BISMARCK       CLOUDY    63  46  54 CALM      29.78F
MINOT          CLEAR     73  38  27 SW9       29.72F
MINOT AFB      CLEAR     70  38  31 SW12      29.70F
GARRISON         N/A     63  42  46 S3        29.76F
WILLISTON      PTCLDY    72  39  30 NE8       29.78R
DICKINSON      CLEAR     58  38  47 S7        29.80S
HETTINGER      CLOUDY    56  47  71 CALM      29.85S
$$

 *****  OTHER OBSERVATIONS NORTHEAST NORTH DAKOTA  *****

CITY           SKY/WX    TMP DP  RH WIND       PRES   REMARKS
WALHALLA       FAIR      75  39  27 SW9       29.67S
LANGDON        FAIR      63  39  42 S13       29.72S
CAVALIER       FAIR      72  39  30 SW8       29.67F
GRAFTON        FAIR      66  43  42 SW8       29.70F
CANDO          FAIR      63  39  42 SW9       29.74S
FORT TOTTEN      N/A     72  40  31 S7        29.95S
ROLLA          FAIR      66  39  37 SW13      29.72F
RUGBY          FAIR      68  45  42 SW16      29.71F
 ***** THE ABOVE OBSERVATIONS ARE NON NWS ARE NOT QUALITY
        CONTROLLED AND MAY MIS-REPORT RAIN FOR SNOW...
$$

 *****  OTHER OBSERVATIONS SOUTHEAST NORTH DAKOTA *****

CITY           SKY/WX    TMP DP  RH WIND       PRES   REMARKS
COOPERSTOWN    NOT AVBL
VALLEY CITY    FAIR      68  45  42 SW17      29.80S
OAKES            N/A    N/A N/A N/A MISG        N/A
GWINNER        FAIR      64  43  45 S13       29.82S
BUFFALO        NOT AVBL
WYNDMERE       NOT AVBL
 ***** THE ABOVE OBSERVATIONS ARE NON NWS ARE NOT QUALITY
       CONTROLLED AND MAY MIS-REPORT RAIN FOR SNOW...
$$

  *****  WEATHER ACROSS NORTHERN MINNESOTA  *****

CITY           SKY/WX    TMP DP  RH WIND       PRES   REMARKS
FLAG ISLAND    PTCLDY    70  37  30 SW13      29.64F
WARROAD        CLOUDY    73  45  35 SW9       29.69S
ROSEAU         PTCLDY    72  39  30 SW12      29.68F
HALLOCK        CLEAR     66  30  26 SW9       29.67S
THF RVR FALLS  PTCLDY    66  34  30 S12       29.74S
HALSTAD        NOT AVBL
FOSSTON        CLEAR     59  37  44 S8        29.78S
BAUDETTE       CLEAR     67  39  35 SW5       29.69F
WASKISH        CLEAR     72  39  30 SW7       29.73S
CROOKSTON      PTCLDY    66  37  34 SW10      29.73F
$$
  *****  WEATHER ACROSS CENTRAL AND WEST MINNESOTA  *****

CITY           SKY/WX    TMP DP  RH WIND       PRES   REMARKS
BEMIDJI        CLEAR     70  39  32 SW9       29.78S
PARK RAPIDS    CLEAR     70  39  32 SW10      29.81S
WADENA         CLEAR     70  43  37 SW9       29.83F
DETROIT LAKES  CLEAR     70  39  32 SW10      29.82F
MOORHEAD       CLEAR     66  39  37 S8        29.79R
FERGUS FALLS   CLEAR     64  43  45 S9        29.80S
ELBOW LAKE     FAIR      60  43  53 S10       29.85F
MORRIS MN      CLEAR     61  45  55 S7        29.85F
STAPLES        CLEAR     70  37  30 SW13G18   29.83F
WHEATON        CLEAR     66  45  45 S13       29.85S
$$
  *****  WEATHER ELSEWHERE ACROSS MINNESOTA  *****

CITY           SKY/WX    TMP DP  RH WIND       PRES   REMARKS
DULUTH         PTCLDY    66  41  40 W12       29.79S
INTRNTL FALLS  CLEAR     59  44  57 SW6       29.70S
ELY            CLEAR     66  41  39 SW3       29.75S
CLOQUET        CLEAR     66  37  34 SW7       29.79F
BRAINERD       CLEAR     64  43  46 SW7       29.83F
HIBBING        CLEAR     55  43  63 SE3       29.77S
ALEXANDRIA     CLEAR     65  41  41 SW10      29.88F
SAINT CLOUD    CLEAR     68  44  42 SW8       29.86S
MINNEAPOLIS    CLEAR     68  41  37 SW8       29.88S
$$

  *****  WEATHER ACROSS SOUTH DAKOTA  *****

CITY           SKY/WX    TMP DP  RH WIND       PRES   REMARKS
SIOUX FALLS    CLEAR     62  44  51 S12       29.93S
BROOKINGS      CLEAR     60  45  57 S10       29.91F
WATERTOWN      CLEAR     57  42  57 S8        29.89F
HURON          CLEAR     64  46  52 S10       29.86S
SISSETON         N/A     72  41  32 SW16      29.82F
ABERDEEN       CLEAR     60  44  55 S10       29.83F
MITCHELL       CLEAR     63  48  58 S9        29.89S
PIERRE         CLOUDY    65  50  58 S7        29.79S
MOBRIDGE       PTCLDY    64  51  62 SE9       29.79S
RAPID CITY     CLOUDY    54  44  69 CALM      29.88S
$$

  *****  SOME WEATHER IN NEARBY STATES *****

CITY           SKY/WX    TMP DP  RH WIND       PRES   REMARKS
GLASGOW MT     CLOUDY    69  41  36 N20       29.84R
GREAT FALLS MT MOCLDY    56  41  57 N9        30.07R
CHEYENNE WY    CLOUDY    56  36  47 S6        30.08S
SCOTTSBLUFF NE CLOUDY    63  44  50 SE6       29.96S
OMAHA NE       PTCLDY    59  46  62 SE6       30.00S
DES MOINES IA  CLEAR     56  39  53 S7        30.00F
DAVENPORT IA   CLEAR     51  39  63 S5        30.00F
CHICAGO IL     CLEAR     47  37  68 CALM      29.98F
EAU CLAIRE WI  PTCLDY    56  40  55 SW3       29.88F
LA CROSSE WI   CLEAR     58  44  60 S6        29.92F
$$

  *****  SOME NATIONAL WEATHER *****

CITY           SKY/WX    TMP DP  RH WIND       PRES   REMARKS
LA GUARDIA NY  CLOUDY    52  47  83 N17       29.65F
RALEIGH NC     LGT RAIN  49  48  97 CALM      29.67S FOG
ATLANTA GA     PTCLDY    49  38  65 NW14      29.87F
NEW ORLEANS LA CLEAR     69  46  43 N12       29.98S
OKLAHOMA CITY  PTCLDY    60  46  59 CALM      30.06S
ALBUQUERQUE NM PTCLDY    67  25  20 SE10      30.02S
SALT LAKE CITY CLOUDY    69  39  33 S5        29.80R
LOS ANGELES CA LGT RAIN  60  52  74 W6        29.88R
BOISE ID       CLOUDY    65  44  46 NW10      29.79S
SEATTLE WA     PTCLDY    62  49  62 NE9       30.04S
$$

*** WEATHER ACROSS MANITOBA...SASKATCHEWAN AND ONTARIO ***
                ***ONTARIO***

CITY           SKY/WX    TMP DP  RH WIND       PRES   REMARKS
GERALDTON      CLEAR     41  32  70 S5        29.80F
THUNDER BAY    CLEAR     37  34  87 NE7       29.78S
SIOUX LOOKOUT  MOCLDY    63  45  51 S6        29.65F
TORONTO        CLEAR     52  37  58 N16G22    29.82S
BIG TROUT LK   PTCLDY    32  18  55 E10G18    29.83F WCI  24
PICKLE LAKE    NOT AVBL
DRYDEN         MOCLDY    68  45  42 S10       29.65F
KENORA         NOT AVBL
$$
                *** MANITOBA***

CITY           SKY/WX    TMP DP  RH WIND       PRES   REMARKS
BRANDON        MOCLDY    75  39  27 W14       29.65F
DAUPHIN        CLEAR     70  41  35 SE3       29.60F
ISLAND LAKE    MOCLDY    46  32  57 E8G17     29.68R
PILOT MOUND      N/A     59  36  41 SW7         N/A
THE PAS        CLOUDY    50  45  81 NW2       29.79R
THOMPSON       LGT RAIN  36  23  60 NE6       29.82R
WINNIPEG       PTCLDY    72  37  28 W8        29.62S
LYNN LAKE      CLOUDY    39  36  87 E2        29.84R
CHURCHILL      CLOUDY    25  19  80 SE7       30.01R WCI  17
GILLAM         CLOUDY    27  21  80 NE8       29.89S WCI  18
$$
                ***SASKATCHEWAN***

CITY           SKY/WX    TMP DP  RH WIND       PRES   REMARKS
ESTEVAN        PTCLDY    59  39  47 NW10      29.75R
KINDERSLEY     CLEAR     48  36  61 NW12G20   30.06R
LLOYDMINSTER   PTCLDY    45  41  87 W14       30.06R
PRINCE ALBERT  LGT RAIN  52  39  62 N10       29.95R
REGINA         MOCLDY    64  43  45 N18G26    29.83R
YORKTON        PTCLDY    68  46  45 NW20G26   29.72R
N. BATTLEFORD  CLEAR     48  37  66 NW9       30.06R  C1F1C2F2C3F3C4F4C5F5C6F6C7F7C8F8C9F9CaFaCbFbCcFcCdFdCe!


USA.gov is the U.S. government's official web portal to all federal, state and local government web resources and services.